DARK66 KDYS-KDYS

Flight info

Callsign DARK66
Flight time N/A
Altitude 24000
Route ABI LANCER /D0100 BGS033012 IR128 /D0100 MAF109060 SJT
Aircraft B1/H-V/N

Departure

Time 2026-04-18 19:03
Airport Dyess Air Force Base (KDYS)

Arrival

Time N/A
Airport Dyess Air Force Base (KDYS)
Time Latitude Longitude Altitude Speed Heading
2026-04-18 18:45 32.40762 -99.84550 1862 ft 0 kts 258°
2026-04-18 18:57 32.40758 -99.84571 1868 ft 6 kts 258°
2026-04-18 18:57 32.40753 -99.84594 1870 ft 1 kts 247°
2026-04-18 18:57 32.40742 -99.84606 1868 ft 2 kts 204°
2026-04-18 18:58 32.40702 -99.84604 1868 ft 10 kts 172°
2026-04-18 18:58 32.40666 -99.84609 1867 ft 3 kts 226°
2026-04-18 18:58 32.40650 -99.84665 1866 ft 11 kts 257°
2026-04-18 18:58 32.40616 -99.84741 1868 ft 9 kts 189°
2026-04-18 18:59 32.40524 -99.84724 1868 ft 18 kts 168°
2026-04-18 18:59 32.40396 -99.84697 1869 ft 16 kts 178°
2026-04-18 18:59 32.40313 -99.84761 1871 ft 13 kts 251°
2026-04-18 18:59 32.40295 -99.84862 1873 ft 12 kts 259°
2026-04-18 19:00 32.40286 -99.84920 1870 ft 0 kts 264°
2026-04-18 19:01 32.40286 -99.84922 1872 ft 1 kts 264°
2026-04-18 19:01 32.40287 -99.84957 1872 ft 8 kts 275°
2026-04-18 19:01 32.40303 -99.85030 1871 ft 12 kts 302°
2026-04-18 19:01 32.40345 -99.85058 1868 ft 0 kts 349°
2026-04-18 19:02 32.40397 -99.85070 1870 ft 37 kts 349°
2026-04-18 19:02 32.40959 -99.85200 1869 ft 125 kts 348°
2026-04-18 19:02 32.42072 -99.85469 1961 ft 194 kts 352°
2026-04-18 19:03 32.43559 -99.85804 2271 ft 247 kts 352°
2026-04-18 19:03 32.45240 -99.86370 2587 ft 258 kts 341°
2026-04-18 19:03 32.46898 -99.87425 3511 ft 265 kts 328°
2026-04-18 19:04 32.49185 -99.89819 4891 ft 209 kts 323°
2026-04-18 19:04 32.50244 -99.91027 5666 ft 211 kts 322°
2026-04-18 19:04 32.51372 -99.92299 6444 ft 235 kts 322°
2026-04-18 19:04 32.52571 -99.93609 7179 ft 233 kts 322°
2026-04-18 19:05 32.53779 -99.94894 7887 ft 229 kts 322°
2026-04-18 19:05 32.56253 -99.97368 9371 ft 235 kts 322°
2026-04-18 19:05 32.57581 -99.98580 10159 ft 260 kts 322°
2026-04-18 19:06 32.59175 -99.99968 10887 ft 308 kts 322°
2026-04-18 19:06 32.63114 -100.03205 12348 ft 370 kts 323°
2026-04-18 19:06 32.65280 -100.04919 13096 ft 387 kts 323°
2026-04-18 19:07 32.67560 -100.06681 13862 ft 389 kts 323°
2026-04-18 19:07 32.69887 -100.08431 14566 ft 396 kts 323°
2026-04-18 19:07 32.72246 -100.10163 15275 ft 404 kts 323°
2026-04-18 19:07 32.74656 -100.11897 16010 ft 408 kts 323°
2026-04-18 19:08 32.77111 -100.13635 16749 ft 411 kts 323°
2026-04-18 19:08 32.79580 -100.15355 17507 ft 416 kts 323°
2026-04-18 19:08 32.82112 -100.17092 18289 ft 426 kts 323°
2026-04-18 19:08 32.84711 -100.18846 19017 ft 433 kts 324°
2026-04-18 19:09 32.87336 -100.20603 19724 ft 437 kts 324°
2026-04-18 19:09 32.90021 -100.22397 20449 ft 441 kts 324°
2026-04-18 19:09 32.92731 -100.24204 21192 ft 451 kts 324°
2026-04-18 19:09 32.95488 -100.26038 21948 ft 459 kts 324°
2026-04-18 19:10 32.98248 -100.27876 22717 ft 463 kts 324°
2026-04-18 19:10 33.01100 -100.29771 23415 ft 474 kts 324°
2026-04-18 19:10 33.03990 -100.31689 23734 ft 476 kts 324°
2026-04-18 19:10 33.06895 -100.33617 23866 ft 474 kts 323°
2026-04-18 19:11 33.09384 -100.36058 23913 ft 454 kts 298°
2026-04-18 19:11 33.10416 -100.39426 23983 ft 427 kts 269°
2026-04-18 19:11 33.10352 -100.42958 24001 ft 422 kts 262°
2026-04-18 19:11 33.10098 -100.46456 23996 ft 425 kts 261°
2026-04-18 19:12 33.09791 -100.49896 23988 ft 424 kts 260°
2026-04-18 19:12 33.09447 -100.53388 23690 ft 423 kts 259°
2026-04-18 19:12 33.09089 -100.56838 22880 ft 413 kts 259°
2026-04-18 19:12 33.08721 -100.60229 22090 ft 408 kts 259°
2026-04-18 19:13 33.08470 -100.62443 21589 ft 405 kts 259°
2026-04-18 19:13 33.07951 -100.66826 20602 ft 401 kts 259°
2026-04-18 19:13 33.07544 -100.70101 19879 ft 398 kts 259°
2026-04-18 19:13 33.07122 -100.73352 19177 ft 396 kts 259°
2026-04-18 19:14 33.06684 -100.76584 18472 ft 394 kts 259°
2026-04-18 19:14 33.06380 -100.78757 17937 ft 392 kts 259°
2026-04-18 19:14 33.05928 -100.81897 17397 ft 384 kts 259°
2026-04-18 19:14 33.05472 -100.85007 17160 ft 383 kts 259°
2026-04-18 19:15 33.05009 -100.88128 17055 ft 383 kts 259°
2026-04-18 19:15 33.04516 -100.91439 17022 ft 423 kts 259°
2026-04-18 19:15 33.03992 -100.94952 16998 ft 427 kts 259°
2026-04-18 19:15 33.03467 -100.98469 16983 ft 427 kts 259°
2026-04-18 19:16 33.02940 -101.01984 16978 ft 428 kts 259°
2026-04-18 19:16 33.02417 -101.05498 16977 ft 428 kts 259°
2026-04-18 19:16 33.01895 -101.09011 16975 ft 428 kts 259°
2026-04-18 19:16 33.01375 -101.12524 16972 ft 429 kts 259°
2026-04-18 19:17 33.00855 -101.16037 16910 ft 430 kts 260°
2026-04-18 19:17 33.00314 -101.19488 16655 ft 429 kts 259°
2026-04-18 19:17 32.99785 -101.22996 16912 ft 437 kts 260°
2026-04-18 19:17 32.99278 -101.26507 16949 ft 432 kts 260°
2026-04-18 19:18 32.98760 -101.29979 17007 ft 426 kts 259°
2026-04-18 19:18 32.98234 -101.33452 16979 ft 428 kts 260°
2026-04-18 19:18 32.97741 -101.36960 16978 ft 425 kts 260°
2026-04-18 19:18 32.97228 -101.40462 16966 ft 427 kts 259°
2026-04-18 19:19 32.96698 -101.43933 16976 ft 428 kts 260°
2026-04-18 19:19 32.96170 -101.47471 16975 ft 430 kts 259°
2026-04-18 19:19 32.95638 -101.51009 16985 ft 438 kts 259°
2026-04-18 19:19 32.95096 -101.54575 16972 ft 436 kts 260°
2026-04-18 19:20 32.94595 -101.58098 17015 ft 425 kts 260°
2026-04-18 19:20 32.94085 -101.61616 17011 ft 415 kts 260°
2026-04-18 19:20 32.93574 -101.65068 17006 ft 421 kts 260°
2026-04-18 19:20 32.93054 -101.68507 16988 ft 413 kts 260°
2026-04-18 19:21 32.92652 -101.71945 16879 ft 421 kts 266°
2026-04-18 19:21 32.93147 -101.75359 16931 ft 438 kts 291°
2026-04-18 19:21 32.94853 -101.78373 16877 ft 443 kts 309°
2026-04-18 19:21 32.97368 -101.80609 16990 ft 455 kts 331°
2026-04-18 19:22 33.00464 -101.81505 16967 ft 470 kts 352°
2026-04-18 19:22 33.03753 -101.81065 16902 ft 474 kts 14°
2026-04-18 19:22 33.06732 -101.79271 16921 ft 484 kts 31°
2026-04-18 19:22 33.09140 -101.76413 16979 ft 502 kts 55°
2026-04-18 19:23 33.10813 -101.72765 17035 ft 504 kts 63°
2026-04-18 19:23 33.12246 -101.68962 16993 ft 504 kts 65°
2026-04-18 19:23 33.13635 -101.65211 16968 ft 501 kts 65°
2026-04-18 19:23 33.15029 -101.61427 16993 ft 503 kts 66°
2026-04-18 19:24 33.16371 -101.57650 16981 ft 496 kts 66°
2026-04-18 19:24 33.17715 -101.53891 16947 ft 495 kts 66°
2026-04-18 19:24 33.19097 -101.50095 16965 ft 494 kts 65°
2026-04-18 19:24 33.20507 -101.46305 16953 ft 491 kts 65°
2026-04-18 19:25 33.21463 -101.42346 16883 ft 494 kts 84°
2026-04-18 19:25 33.21356 -101.38218 16212 ft 497 kts 103°
2026-04-18 19:25 33.20147 -101.34444 15512 ft 484 kts 124°
2026-04-18 19:25 33.18011 -101.31475 14866 ft 471 kts 143°
2026-04-18 19:26 33.15425 -101.29138 14253 ft 472 kts 148°
2026-04-18 19:26 33.12812 -101.26945 13500 ft 459 kts 149°
2026-04-18 19:26 33.10179 -101.24830 12717 ft 452 kts 149°
2026-04-18 19:26 33.07559 -101.22792 11942 ft 445 kts 150°
2026-04-18 19:27 33.04962 -101.20819 11222 ft 441 kts 150°
2026-04-18 19:27 33.02340 -101.18875 10579 ft 441 kts 150°
2026-04-18 19:27 32.99690 -101.16901 10236 ft 448 kts 149°
2026-04-18 19:27 32.97042 -101.14970 10177 ft 467 kts 150°
2026-04-18 19:28 32.94086 -101.12902 10150 ft 497 kts 151°
2026-04-18 19:28 32.91182 -101.10873 10085 ft 482 kts 150°
2026-04-18 19:28 32.88263 -101.08829 10052 ft 479 kts 150°
2026-04-18 19:28 32.85364 -101.06792 10036 ft 481 kts 150°
2026-04-18 19:29 32.82452 -101.04725 10076 ft 484 kts 150°
2026-04-18 19:29 32.79546 -101.02665 10079 ft 484 kts 150°
2026-04-18 19:29 32.76632 -101.00619 10108 ft 482 kts 150°
2026-04-18 19:29 32.73711 -100.98562 10074 ft 482 kts 150°
2026-04-18 19:30 32.70811 -100.96528 10072 ft 477 kts 150°
2026-04-18 19:30 32.67904 -100.94520 10087 ft 482 kts 150°
2026-04-18 19:30 32.65237 -100.92126 10120 ft 487 kts 132°
2026-04-18 19:30 32.63400 -100.88744 10153 ft 487 kts 111°
2026-04-18 19:31 32.62641 -100.84831 10147 ft 495 kts 96°
2026-04-18 19:31 32.62211 -100.80816 10107 ft 477 kts 96°
2026-04-18 19:31 32.61760 -100.76874 10087 ft 481 kts 97°
2026-04-18 19:31 32.61292 -100.72924 10067 ft 481 kts 96°
2026-04-18 19:32 32.60874 -100.68964 10059 ft 478 kts 95°
2026-04-18 19:32 32.60470 -100.65011 10069 ft 478 kts 95°
2026-04-18 19:32 32.60078 -100.61121 10029 ft 475 kts 95°
2026-04-18 19:32 32.59664 -100.57197 10004 ft 477 kts 96°
2026-04-18 19:33 32.59253 -100.53269 9971 ft 478 kts 95°
2026-04-18 19:33 32.58846 -100.49344 10006 ft 480 kts 96°
2026-04-18 19:33 32.58465 -100.45420 10003 ft 481 kts 95°
2026-04-18 19:33 32.58087 -100.41489 9958 ft 485 kts 95°
2026-04-18 19:34 32.58098 -100.37702 8985 ft 443 kts 65°
2026-04-18 19:34 32.60848 -100.35842 5696 ft 551 kts 349°
2026-04-18 19:34 32.64009 -100.38299 4538 ft 521 kts 324°
2026-04-18 19:34 32.66906 -100.40986 4101 ft 552 kts 324°
2026-04-18 19:35 32.70032 -100.43852 4056 ft 585 kts 324°
2026-04-18 19:35 32.73311 -100.46926 4063 ft 605 kts 324°
2026-04-18 19:35 32.76641 -100.50002 4046 ft 611 kts 324°
2026-04-18 19:35 32.80050 -100.53119 4024 ft 619 kts 324°
2026-04-18 19:36 32.83505 -100.56213 4002 ft 618 kts 325°
2026-04-18 19:36 32.86943 -100.59269 4024 ft 620 kts 325°
2026-04-18 19:36 32.90335 -100.62341 4054 ft 620 kts 324°
2026-04-18 19:36 32.93779 -100.65474 4079 ft 621 kts 324°
2026-04-18 19:37 32.97221 -100.68575 4055 ft 617 kts 324°
2026-04-18 19:37 33.00651 -100.71641 4052 ft 617 kts 325°
2026-04-18 19:37 33.04110 -100.74676 4050 ft 617 kts 325°
2026-04-18 19:37 33.07562 -100.77730 4027 ft 614 kts 324°
2026-04-18 19:38 33.10908 -100.80777 4005 ft 616 kts 324°
2026-04-18 19:38 33.14345 -100.83898 4032 ft 621 kts 325°
2026-04-18 19:38 33.17742 -100.86895 4044 ft 612 kts 325°
2026-04-18 19:38 33.20984 -100.90138 3895 ft 610 kts 314°
2026-04-18 19:39 33.23115 -100.94626 3217 ft 641 kts 287°
2026-04-18 19:39 33.23223 -100.99828 3164 ft 632 kts 263°
2026-04-18 19:39 33.21798 -101.04699 3159 ft 614 kts 244°
2026-04-18 19:39 33.19817 -101.09185 3094 ft 616 kts 243°
2026-04-18 19:40 33.17980 -101.13753 3065 ft 612 kts 248°
2026-04-18 19:40 33.16329 -101.18450 3028 ft 605 kts 248°
2026-04-18 19:40 33.14662 -101.23046 3018 ft 607 kts 246°
2026-04-18 19:40 33.12868 -101.27532 3030 ft 595 kts 244°
2026-04-18 19:41 33.11032 -101.31965 3017 ft 619 kts 245°
2026-04-18 19:41 33.09198 -101.36538 3047 ft 614 kts 246°
2026-04-18 19:41 33.07377 -101.41165 2995 ft 617 kts 246°
2026-04-18 19:41 33.05651 -101.45681 3000 ft 590 kts 247°
2026-04-18 19:42 33.03892 -101.50101 3019 ft 603 kts 245°
2026-04-18 19:42 33.02020 -101.54654 3320 ft 617 kts 245°
2026-04-18 19:42 33.00236 -101.59218 3482 ft 579 kts 246°
2026-04-18 19:42 32.98544 -101.63675 3517 ft 595 kts 246°
2026-04-18 19:43 32.96761 -101.68136 3666 ft 602 kts 246°
2026-04-18 19:43 32.95035 -101.72622 3646 ft 577 kts 245°
2026-04-18 19:43 32.93218 -101.77062 3643 ft 611 kts 245°
2026-04-18 19:43 32.91427 -101.81600 3683 ft 607 kts 245°
2026-04-18 19:44 32.88246 -101.84366 3584 ft 588 kts 187°
2026-04-18 19:44 32.84574 -101.82686 3752 ft 590 kts 133°
2026-04-18 19:44 32.82286 -101.73547 3595 ft 578 kts 97°
2026-04-18 19:45 32.81713 -101.68875 3505 ft 573 kts 97°
2026-04-18 19:45 32.81136 -101.64180 3505 ft 582 kts 96°
2026-04-18 19:45 32.80571 -101.59416 3489 ft 590 kts 96°
2026-04-18 19:45 32.79981 -101.54660 3478 ft 580 kts 96°
2026-04-18 19:46 32.79355 -101.49946 3488 ft 581 kts 97°
2026-04-18 19:46 32.78701 -101.45294 3476 ft 570 kts 97°
2026-04-18 19:46 32.78071 -101.40530 3496 ft 578 kts 97°
2026-04-18 19:46 32.77461 -101.35801 3481 ft 581 kts 97°
2026-04-18 19:47 32.76832 -101.31132 3498 ft 582 kts 97°
2026-04-18 19:47 32.76232 -101.26393 3521 ft 567 kts 96°
2026-04-18 19:47 32.75629 -101.21702 3526 ft 571 kts 96°
2026-04-18 19:47 32.75024 -101.16966 3530 ft 581 kts 96°
2026-04-18 19:48 32.74403 -101.12259 3525 ft 584 kts 97°
2026-04-18 19:48 32.73781 -101.07626 3558 ft 583 kts 97°
2026-04-18 19:48 32.73180 -101.02837 3579 ft 572 kts 96°
2026-04-18 19:48 32.72560 -100.98087 3614 ft 590 kts 97°
2026-04-18 19:49 32.71926 -100.93359 3597 ft 584 kts 97°
2026-04-18 19:49 32.71295 -100.88660 3596 ft 582 kts 97°
2026-04-18 19:49 32.70681 -100.83990 3587 ft 571 kts 96°
2026-04-18 19:49 32.70090 -100.79296 3610 ft 587 kts 96°
2026-04-18 19:50 32.69496 -100.74490 3600 ft 582 kts 96°
2026-04-18 19:50 32.68852 -100.69741 3602 ft 584 kts 97°
2026-04-18 19:50 32.68225 -100.64961 3554 ft 571 kts 97°
2026-04-18 19:50 32.67632 -100.60243 3526 ft 564 kts 96°
2026-04-18 19:51 32.67230 -100.57141 3529 ft 582 kts 97°